LAN211 SCEL-SCIE

Flight info

Callsign LAN211
Flight time 0h 48m
Altitude 31000
Route GELUS UQ809 ARUNI
Aircraft A320/M-SDE3FGHIRWY/LB1

Departure

Time 2026-05-04 19:18
Airport Comodoro Arturo Merino Benítez International Airport (SCEL)

Arrival

Time 2026-05-04 20:07
Airport Carriel Sur International Airport (SCIE)
Time Latitude Longitude Altitude Speed Heading
2026-05-04 18:51 -33.39574 -70.79154 1565 ft 0 kts 176°
2026-05-04 19:09 -33.39572 -70.79154 1542 ft 2 kts 176°
2026-05-04 19:09 -33.39547 -70.79157 1564 ft 4 kts 167°
2026-05-04 19:09 -33.39522 -70.79167 1564 ft 4 kts 149°
2026-05-04 19:10 -33.39503 -70.79186 1564 ft 4 kts 104°
2026-05-04 19:10 -33.39501 -70.79196 1564 ft 0 kts 87°
2026-05-04 19:12 -33.39501 -70.79192 1564 ft 1 kts 86°
2026-05-04 19:12 -33.39499 -70.79144 1564 ft 5 kts 86°
2026-05-04 19:12 -33.39496 -70.79091 1564 ft 7 kts 87°
2026-05-04 19:13 -33.39493 -70.79020 1564 ft 10 kts 87°
2026-05-04 19:13 -33.39489 -70.78929 1564 ft 12 kts 75°
2026-05-04 19:13 -33.39429 -70.78855 1564 ft 14 kts 28°
2026-05-04 19:13 -33.39337 -70.78801 1564 ft 16 kts 13°
2026-05-04 19:14 -33.39223 -70.78799 1564 ft 17 kts 357°
2026-05-04 19:14 -33.39097 -70.78806 1564 ft 19 kts 357°
2026-05-04 19:14 -33.38958 -70.78813 1564 ft 21 kts 358°
2026-05-04 19:14 -33.38804 -70.78822 1564 ft 23 kts 356°
2026-05-04 19:15 -33.38639 -70.78832 1564 ft 25 kts 358°
2026-05-04 19:15 -33.38459 -70.78840 1564 ft 27 kts 357°
2026-05-04 19:15 -33.38301 -70.78848 1564 ft 22 kts 358°
2026-05-04 19:15 -33.38143 -70.78857 1564 ft 24 kts 357°
2026-05-04 19:16 -33.37972 -70.78866 1565 ft 26 kts 358°
2026-05-04 19:16 -33.37819 -70.78874 1564 ft 21 kts 358°
2026-05-04 19:16 -33.37688 -70.78880 1564 ft 15 kts 358°
2026-05-04 19:16 -33.37625 -70.78804 1564 ft 15 kts 84°
2026-05-04 19:17 -33.37639 -70.78684 1565 ft 15 kts 129°
2026-05-04 19:17 -33.37737 -70.78664 1565 ft 16 kts 176°
2026-05-04 19:17 -33.37953 -70.78652 1564 ft 60 kts 177°
2026-05-04 19:17 -33.38571 -70.78618 1565 ft 116 kts 177°
2026-05-04 19:18 -33.39528 -70.78557 1565 ft 159 kts 176°
2026-05-04 19:18 -33.40664 -70.78486 2037 ft 163 kts 175°
2026-05-04 19:18 -33.41799 -70.78420 2710 ft 163 kts 178°
2026-05-04 19:18 -33.42984 -70.78353 3117 ft 180 kts 178°
2026-05-04 19:19 -33.44325 -70.78279 3390 ft 204 kts 178°
2026-05-04 19:19 -33.45803 -70.78196 3724 ft 225 kts 177°
2026-05-04 19:19 -33.47464 -70.78117 4072 ft 251 kts 182°
2026-05-04 19:19 -33.49171 -70.78773 4606 ft 269 kts 217°
2026-05-04 19:20 -33.50322 -70.80564 5365 ft 277 kts 249°
2026-05-04 19:20 -33.50882 -70.82775 6300 ft 279 kts 260°
2026-05-04 19:20 -33.51249 -70.85071 7204 ft 281 kts 263°
2026-05-04 19:20 -33.51615 -70.87375 8096 ft 283 kts 262°
2026-05-04 19:21 -33.52051 -70.89698 8750 ft 287 kts 260°
2026-05-04 19:21 -33.52558 -70.91984 8946 ft 287 kts 257°
2026-05-04 19:21 -33.53134 -70.94280 8993 ft 286 kts 256°
2026-05-04 19:21 -33.53902 -70.96483 8996 ft 290 kts 240°
2026-05-04 19:22 -33.55321 -70.98233 9070 ft 298 kts 215°
2026-05-04 19:22 -33.57191 -70.99392 9801 ft 303 kts 210°
2026-05-04 19:22 -33.59110 -71.00542 10372 ft 317 kts 210°
2026-05-04 19:22 -33.61141 -71.01786 10673 ft 337 kts 211°
2026-05-04 19:23 -33.63229 -71.03071 11288 ft 344 kts 211°
2026-05-04 19:23 -33.65380 -71.04390 12027 ft 348 kts 211°
2026-05-04 19:23 -33.67551 -71.05717 12790 ft 350 kts 211°
2026-05-04 19:23 -33.69735 -71.07048 13568 ft 353 kts 211°
2026-05-04 19:24 -33.71948 -71.08392 14251 ft 356 kts 211°
2026-05-04 19:24 -33.74136 -71.09721 14935 ft 357 kts 211°
2026-05-04 19:24 -33.76360 -71.11073 15604 ft 359 kts 211°
2026-05-04 19:24 -33.78606 -71.12440 16279 ft 361 kts 212°
2026-05-04 19:25 -33.80857 -71.13808 16969 ft 363 kts 212°
2026-05-04 19:25 -33.83122 -71.15186 17653 ft 365 kts 212°
2026-05-04 19:25 -33.85368 -71.16557 18315 ft 367 kts 212°
2026-05-04 19:25 -33.87659 -71.17960 18931 ft 369 kts 212°
2026-05-04 19:26 -33.89964 -71.19370 19540 ft 372 kts 213°
2026-05-04 19:26 -33.92278 -71.20783 20180 ft 373 kts 213°
2026-05-04 19:26 -33.94605 -71.22203 20800 ft 376 kts 212°
2026-05-04 19:26 -33.96924 -71.23620 21364 ft 378 kts 213°
2026-05-04 19:27 -33.99278 -71.25064 21971 ft 380 kts 213°
2026-05-04 19:27 -34.01641 -71.26514 22572 ft 381 kts 214°
2026-05-04 19:27 -34.04020 -71.27976 23150 ft 384 kts 214°
2026-05-04 19:27 -34.06412 -71.29445 23679 ft 386 kts 214°
2026-05-04 19:28 -34.08819 -71.30917 24136 ft 388 kts 214°
2026-05-04 19:28 -34.11242 -71.32400 24609 ft 391 kts 214°
2026-05-04 19:28 -34.13676 -71.33891 25048 ft 394 kts 214°
2026-05-04 19:28 -34.16096 -71.35381 25480 ft 396 kts 214°
2026-05-04 19:29 -34.18555 -71.36898 25915 ft 398 kts 214°
2026-05-04 19:29 -34.21026 -71.38426 26363 ft 400 kts 214°
2026-05-04 19:29 -34.23517 -71.39965 26774 ft 402 kts 214°
2026-05-04 19:29 -34.26023 -71.41513 27181 ft 405 kts 214°
2026-05-04 19:30 -34.28540 -71.43069 27582 ft 407 kts 214°
2026-05-04 19:30 -34.31049 -71.44619 27966 ft 409 kts 214°
2026-05-04 19:30 -34.33594 -71.46189 28358 ft 412 kts 214°
2026-05-04 19:30 -34.36152 -71.47768 28731 ft 414 kts 214°
2026-05-04 19:31 -34.38729 -71.49364 29120 ft 417 kts 214°
2026-05-04 19:31 -34.41324 -71.50972 29499 ft 419 kts 214°
2026-05-04 19:31 -34.43934 -71.52589 29875 ft 422 kts 214°
2026-05-04 19:31 -34.46561 -71.54219 30230 ft 424 kts 214°
2026-05-04 19:32 -34.49201 -71.55854 30545 ft 426 kts 214°
2026-05-04 19:32 -34.51822 -71.57482 30849 ft 428 kts 214°
2026-05-04 19:32 -34.54477 -71.59131 30999 ft 427 kts 214°
2026-05-04 19:32 -34.57083 -71.60741 31025 ft 411 kts 214°
2026-05-04 19:33 -34.59610 -71.62300 31026 ft 404 kts 215°
2026-05-04 19:33 -34.64592 -71.65406 31024 ft 400 kts 215°
2026-05-04 19:34 -34.69519 -71.68494 31025 ft 400 kts 215°
2026-05-04 19:34 -34.74480 -71.71592 31032 ft 400 kts 215°
2026-05-04 19:35 -34.79432 -71.74679 31032 ft 399 kts 215°
2026-05-04 19:35 -34.84358 -71.77766 31036 ft 399 kts 215°
2026-05-04 19:36 -34.89310 -71.80878 31043 ft 400 kts 215°
2026-05-04 19:36 -34.94264 -71.83985 31047 ft 399 kts 215°
2026-05-04 19:37 -34.99179 -71.87076 31050 ft 399 kts 215°
2026-05-04 19:37 -35.04116 -71.90181 31054 ft 398 kts 215°
2026-05-04 19:38 -35.09016 -71.93273 31052 ft 398 kts 215°
2026-05-04 19:38 -35.13942 -71.96376 31055 ft 397 kts 214°
2026-05-04 19:39 -35.18855 -71.99477 31052 ft 397 kts 215°
2026-05-04 19:39 -35.23728 -72.02567 31054 ft 396 kts 215°
2026-05-04 19:40 -35.28629 -72.05677 31058 ft 396 kts 215°
2026-05-04 19:40 -35.33528 -72.08779 31059 ft 395 kts 215°
2026-05-04 19:41 -35.38424 -72.11890 31057 ft 395 kts 215°
2026-05-04 19:41 -35.43300 -72.14998 31054 ft 395 kts 215°
2026-05-04 19:42 -35.48158 -72.18101 31057 ft 394 kts 215°
2026-05-04 19:42 -35.53035 -72.21221 31059 ft 394 kts 215°
2026-05-04 19:43 -35.57076 -72.23803 31060 ft 394 kts 215°
2026-05-04 19:43 -35.61940 -72.26921 31060 ft 394 kts 215°
2026-05-04 19:44 -35.66811 -72.30042 31055 ft 393 kts 216°
2026-05-04 19:44 -35.71647 -72.33145 31039 ft 399 kts 215°
2026-05-04 19:44 -35.74153 -72.34764 31040 ft 411 kts 215°
2026-05-04 19:45 -35.76711 -72.36420 31038 ft 417 kts 215°
2026-05-04 19:45 -35.81891 -72.39752 31041 ft 420 kts 215°
2026-05-04 19:45 -35.84488 -72.41417 30908 ft 419 kts 215°
2026-05-04 19:46 -35.87030 -72.43045 30365 ft 416 kts 215°
2026-05-04 19:46 -35.89686 -72.44505 29584 ft 424 kts 206°
2026-05-04 19:46 -35.92510 -72.45671 28746 ft 426 kts 206°
2026-05-04 19:46 -35.95331 -72.46812 28070 ft 425 kts 206°
2026-05-04 19:47 -35.98135 -72.47929 27449 ft 422 kts 206°
2026-05-04 19:47 -36.00919 -72.49034 26849 ft 418 kts 206°
2026-05-04 19:47 -36.03680 -72.50134 26234 ft 415 kts 206°
2026-05-04 19:47 -36.06419 -72.51234 25649 ft 412 kts 206°
2026-05-04 19:48 -36.09131 -72.52332 25087 ft 408 kts 206°
2026-05-04 19:48 -36.11825 -72.53428 24553 ft 405 kts 206°
2026-05-04 19:48 -36.14488 -72.54516 24066 ft 402 kts 206°
2026-05-04 19:48 -36.17139 -72.55596 23596 ft 399 kts 206°
2026-05-04 19:49 -36.19772 -72.56667 23037 ft 396 kts 206°
2026-05-04 19:49 -36.22385 -72.57731 22506 ft 393 kts 206°
2026-05-04 19:49 -36.24975 -72.58783 22001 ft 391 kts 206°
2026-05-04 19:49 -36.27524 -72.59817 21546 ft 388 kts 206°
2026-05-04 19:50 -36.30074 -72.60848 20839 ft 382 kts 206°
2026-05-04 19:50 -36.32588 -72.61868 19979 ft 378 kts 206°
2026-05-04 19:50 -36.35078 -72.62885 19129 ft 374 kts 206°
2026-05-04 19:50 -36.37543 -72.63896 18284 ft 371 kts 206°
2026-05-04 19:51 -36.39987 -72.64899 17323 ft 368 kts 206°
2026-05-04 19:51 -36.42417 -72.65894 16394 ft 364 kts 206°
2026-05-04 19:51 -36.44707 -72.67032 15527 ft 352 kts 216°
2026-05-04 19:51 -36.46845 -72.68519 14850 ft 352 kts 216°
2026-05-04 19:52 -36.48972 -72.70005 14370 ft 349 kts 216°
2026-05-04 19:52 -36.51081 -72.71482 13892 ft 347 kts 216°
2026-05-04 19:52 -36.53182 -72.72955 13354 ft 345 kts 216°
2026-05-04 19:52 -36.55259 -72.74412 12965 ft 340 kts 216°
2026-05-04 19:53 -36.57334 -72.75868 12709 ft 341 kts 216°
2026-05-04 19:53 -36.59398 -72.77315 12460 ft 340 kts 216°
2026-05-04 19:53 -36.61459 -72.78759 12209 ft 339 kts 215°
2026-05-04 19:53 -36.63484 -72.80179 11961 ft 337 kts 215°
2026-05-04 19:54 -36.65519 -72.81607 11706 ft 335 kts 215°
2026-05-04 19:54 -36.67532 -72.83019 11430 ft 326 kts 215°
2026-05-04 19:54 -36.69475 -72.84376 11307 ft 313 kts 215°
2026-05-04 19:54 -36.71342 -72.85680 11186 ft 301 kts 215°
2026-05-04 19:55 -36.73133 -72.86935 11068 ft 290 kts 215°
2026-05-04 19:55 -36.74871 -72.88156 10902 ft 282 kts 216°
2026-05-04 19:55 -36.76573 -72.89358 10616 ft 279 kts 216°
2026-05-04 19:55 -36.78240 -72.90537 10319 ft 277 kts 215°
2026-05-04 19:56 -36.79909 -72.91719 10029 ft 275 kts 215°
2026-05-04 19:56 -36.81579 -72.92894 9684 ft 274 kts 214°
2026-05-04 19:56 -36.83250 -72.94048 9267 ft 272 kts 214°
2026-05-04 19:56 -36.84909 -72.95181 8599 ft 272 kts 213°
2026-05-04 19:57 -36.86572 -72.96313 7940 ft 273 kts 213°
2026-05-04 19:57 -36.88241 -72.97453 7305 ft 273 kts 213°
2026-05-04 19:57 -36.89913 -72.98598 6676 ft 274 kts 213°
2026-05-04 19:57 -36.91591 -72.99749 6029 ft 275 kts 212°
2026-05-04 19:58 -36.93245 -73.00884 5407 ft 274 kts 212°
2026-05-04 19:58 -36.94888 -73.02010 5137 ft 259 kts 212°
2026-05-04 19:58 -36.96418 -73.03055 5012 ft 240 kts 212°
2026-05-04 19:58 -36.97847 -73.04033 4786 ft 231 kts 212°
2026-05-04 19:59 -36.99243 -73.04996 4537 ft 228 kts 212°
2026-05-04 19:59 -37.00563 -73.06019 4263 ft 223 kts 226°
2026-05-04 19:59 -37.01401 -73.07585 3992 ft 215 kts 255°
2026-05-04 19:59 -37.01524 -73.09418 3706 ft 211 kts 283°
2026-05-04 20:00 -37.01018 -73.11084 3568 ft 201 kts 296°
2026-05-04 20:00 -37.00435 -73.12629 3491 ft 190 kts 296°
2026-05-04 20:00 -36.99890 -73.14079 3527 ft 182 kts 296°
2026-05-04 20:00 -36.99354 -73.15503 3507 ft 180 kts 296°
2026-05-04 20:01 -36.98773 -73.16842 3485 ft 171 kts 311°
2026-05-04 20:01 -36.97836 -73.17618 3488 ft 161 kts 342°
2026-05-04 20:01 -36.96720 -73.17637 3489 ft 164 kts 14°
2026-05-04 20:01 -36.95670 -73.17062 3503 ft 165 kts 21°
2026-05-04 20:02 -36.94622 -73.16458 3492 ft 166 kts 21°
2026-05-04 20:02 -36.93577 -73.15851 3362 ft 165 kts 22°
2026-05-04 20:02 -36.92539 -73.15244 3178 ft 164 kts 22°
2026-05-04 20:02 -36.91500 -73.14636 2962 ft 165 kts 22°
2026-05-04 20:03 -36.90474 -73.14035 2750 ft 165 kts 22°
2026-05-04 20:03 -36.89433 -73.13425 2532 ft 165 kts 22°
2026-05-04 20:03 -36.88397 -73.12819 2307 ft 164 kts 22°
2026-05-04 20:03 -36.87362 -73.12213 2088 ft 164 kts 22°
2026-05-04 20:04 -36.86335 -73.11612 1852 ft 159 kts 22°
2026-05-04 20:04 -36.85369 -73.11046 1648 ft 145 kts 23°
2026-05-04 20:04 -36.84478 -73.10525 1464 ft 138 kts 23°
2026-05-04 20:04 -36.83620 -73.10024 1285 ft 135 kts 23°
2026-05-04 20:05 -36.82778 -73.09533 1062 ft 134 kts 23°
2026-05-04 20:05 -36.81935 -73.09040 886 ft 133 kts 25°
2026-05-04 20:05 -36.81096 -73.08550 705 ft 133 kts 24°
2026-05-04 20:05 -36.80254 -73.08059 525 ft 134 kts 24°
2026-05-04 20:06 -36.79407 -73.07581 318 ft 133 kts 25°
2026-05-04 20:06 -36.78573 -73.07088 134 ft 133 kts 25°
2026-05-04 20:06 -36.77741 -73.06601 33 ft 129 kts 25°
2026-05-04 20:06 -36.77078 -73.06215 31 ft 80 kts 25°
2026-05-04 20:07 -36.76718 -73.06011 29 ft 44 kts 25°
2026-05-04 20:07 -36.76469 -73.05861 29 ft 19 kts 25°
2026-05-04 20:07 -36.76342 -73.05791 29 ft 16 kts 25°
2026-05-04 20:07 -36.76323 -73.05682 29 ft 15 kts 116°
2026-05-04 20:08 -36.76395 -73.05586 30 ft 16 kts 164°
2026-05-04 20:08 -36.76503 -73.05628 30 ft 18 kts 206°
2026-05-04 20:08 -36.76623 -73.05695 30 ft 20 kts 204°
2026-05-04 20:08 -36.76755 -73.05779 30 ft 23 kts 207°
2026-05-04 20:09 -36.76901 -73.05862 30 ft 24 kts 205°
2026-05-04 20:09 -36.77056 -73.05953 30 ft 25 kts 205°
2026-05-04 20:09 -36.77196 -73.06037 30 ft 22 kts 206°
2026-05-04 20:09 -36.77324 -73.06110 30 ft 12 kts 204°
2026-05-04 20:10 -36.77404 -73.06157 30 ft 13 kts 208°
2026-05-04 20:10 -36.77488 -73.06167 30 ft 13 kts 143°
2026-05-04 20:10 -36.77530 -73.06070 30 ft 11 kts 110°
2026-05-04 20:10 -36.77572 -73.06034 30 ft 7 kts 170°
2026-05-04 20:11 -36.77608 -73.06027 30 ft 2 kts 170°
2026-05-04 20:11 -36.77618 -73.06025 30 ft 0 kts 171°
2026-05-04 20:11 -36.77621 -73.06024 30 ft 0 kts 171°